User: anonymous   Login
Location: Unspecified
(0.0000°N, 0.0000°E)
Time: 13:44:17
(UTC+00:00)
Language:

EUTE 9B - Orbit

View from above orbital plane
View from above orbital plane
View from above satellite
View from above satellite

Ground track
Ground track

The orbit data is extracted from the following two-line orbital elements,

1 41310U 16005A   22026.84977271  .00000071  00000-0  00000-0 0  9996
2 41310   0.0221  39.4858 0005447 242.2654 159.2734  1.00274410 22057
Epoch (UTC): 26 January 2022 20:23:40
Eccentricity: 0.0005447
inclination: 0.0221°
perigee height: 35762 km
apogee height: 35808 km
right ascension of ascending node: 39.4858°
argument of perigee: 242.2654°
revolutions per day: 1.00274410
mean anomaly at epoch: 159.2734°
orbit number at epoch: 2205

The dashed part of the orbit path shows where the satellite is in the earth's shadow,  

DLR